Tracking 17699 objects as of 1-June-2016
HD Live streaming from Space Station
objects crossing your sky now

IRIDIUM 33 DEB

Track IRIDIUM 33 DEB now!
10-day predictions


NORAD ID: 33869
Int'l Code: 1997-051AN
Perigee: 720.8 km
Apogee: 832.9 km
Inclination: 86.4 °
Period: 100.2 minutes
Semi major axis: 7147 km
RCS: 0.08 m2 (small)
Launch date: September 14, 1997
Source: United States (US)
Launch site: TYURATAM MISSILE AND SPACE COMPLEX (TTMTR)

Note: This is SATELLITE DEBRIS
Your satellite tracking list
Your tracking list is empty





NASA's NSSDC Master Catalog

Two Line Element Set (TLE):
1 33869U 97051AN  16151.89347384  .00003376  00000-0  11023-2 0  9999
2 33869  86.3673 103.0480 0078410 175.9129 184.2726 14.36602140378717
Source of the keplerian elements: AFSPC

N2YO: 487